This is the latest recevied weather packets stored in our database for station/object KC4JIR. If no packets are shown the sender has not sent any weather packets the latest 10 day(s).
| Time | Temp. | Humidity | Pressure | Rain* | Wind** | Luminosity | Snow |
|---|---|---|---|---|---|---|---|
| 1788298425 | 34.44° C | 55% | 1014.2 hPa | 0 mm | - | 300 W/m² | - |
| 1788298119 | 35° C | 54% | 1014.4 hPa | 0 mm | - | 327 W/m² | - |
| 1788297816 | 35.56° C | 58% | 1014.4 hPa | 0 mm | - | 347 W/m² | - |
| 1788297512 | 35° C | 52% | 1014.4 hPa | 0 mm | - | 322 W/m² | - |
| 1788297207 | 35.56° C | 56% | 1014.4 hPa | 0 mm | - | 354 W/m² | - |
| 1788296902 | 34.44° C | 55% | 1014.5 hPa | 0 mm | - | 385 W/m² | - |
| 1788296598 | 34.44° C | 55% | 1014.4 hPa | 0 mm | - | 385 W/m² | - |
| 1788296294 | 34.44° C | 54% | 1014.5 hPa | 0 mm | - | 383 W/m² | - |
| 1788295994 | 35° C | 54% | 1014.3 hPa | 0 mm | - | 70 W/m² | - |
| 1788295689 | 36.11° C | 52% | 1014.3 hPa | 0 mm | - | 444 W/m² | - |
| 1788295386 | 36.11° C | 53% | 1014.3 hPa | 0 mm | - | 451 W/m² | - |
| 1788295085 | 36.67° C | 54% | 1014.3 hPa | 0 mm | - | 477 W/m² | - |
| 1788294780 | 36.67° C | 51% | 1014.7 hPa | 0 mm | - | 490 W/m² | - |
| 1788294480 | 36.11° C | 50% | 1014.6 hPa | 0 mm | - | 528 W/m² | - |
| 1788294175 | 36.11° C | 50% | 1014.6 hPa | 0 mm | - | 528 W/m² | - |
| 1788293871 | 36.11° C | 50% | 1014.8 hPa | 0 mm | - | 528 W/m² | - |
| 1788293582 | 35.56° C | 54% | 1014.7 hPa | 0 mm | - | 542 W/m² | - |
| 1788293264 | 36.11° C | 52% | 1014.8 hPa | 0 mm | - | 563 W/m² | - |
| 1788292960 | 35.56° C | 53% | 1014.9 hPa | 0 mm | - | 555 W/m² | - |
| 1788292658 | 35° C | 52% | 1014.9 hPa | 0 mm | - | 565 W/m² | - |
| 1788292352 | 35° C | 51% | 1014.7 hPa | 0 mm | - | 550 W/m² | - |
| 1788292048 | 35° C | 51% | 1014.9 hPa | 0 mm | - | 559 W/m² | - |
| 1788291742 | 35.56° C | 51% | 1015.2 hPa | 0 mm | - | 576 W/m² | - |
| 1788291438 | 35.56° C | 53% | 1015.2 hPa | 0 mm | - | 590 W/m² | - |
| 1788291132 | 35.56° C | 48% | 1015.3 hPa | 0 mm | - | 594 W/m² | - |
* Rain latest hour (hover to see other rain measurements)
** Current wind speed in m/s (hover to see current wind gust speed)